| time (UTC) | temp C | wind direction | speed KPH | gust KPH | rain 1hr cm | rain 24hr cm | rain mn cm | humidity % | barometer mb |
| 20260507164552 | 13 | 10 | 4.8 | 6.4 | 0.00 | 0.00 | 0.00 | 45 | 1011.0 |
| 20260507164049 | 12 | 269 | 6.4 | 11.3 | 0.00 | 0.00 | 0.00 | 40 | 1011.0 |
| 20260507163547 | 13 | 261 | 3.2 | 12.9 | 0.00 | 0.00 | 0.00 | 44 | 1011.0 |
| 20260507163044 | 13 | 291 | 3.2 | 9.7 | 0.00 | 0.00 | 0.00 | 46 | 1011.3 |
| 20260507162544 | 13 | 278 | 6.4 | 11.3 | 0.00 | 0.00 | 0.00 | 42 | 1011.3 |
| 20260507162042 | 12 | 339 | 3.2 | 14.5 | 0.00 | 0.00 | 0.00 | 47 | 1011.3 |
| 20260507161539 | 12 | 272 | 6.4 | 9.7 | 0.00 | 0.00 | 0.00 | 41 | 1011.3 |
| 20260507161035 | 13 | 27 | 8.0 | 12.9 | 0.00 | 0.00 | 0.00 | 45 | 1011.3 |
| 20260507160531 | 12 | 46 | 3.2 | 6.4 | 0.00 | 0.00 | 0.00 | 45 | 1011.3 |
| 20260507160027 | 13 | 37 | 11.3 | 12.9 | 0.00 | 0.00 | 0.00 | 44 | 1011.3 |
| 20260507155522 | 12 | 328 | 4.8 | 9.7 | 0.00 | 0.00 | 0.00 | 43 | 1011.3 |
| 20260507155020 | 12 | 326 | 8.0 | 14.5 | 0.00 | 0.00 | 0.00 | 42 | 1011.3 |
| 20260507154517 | 12 | 57 | 3.2 | 3.2 | 0.00 | 0.00 | 0.00 | 43 | 1011.7 |
| 20260507154014 | 12 | 290 | 8.0 | 22.5 | 0.00 | 0.00 | 0.00 | 47 | 1011.7 |
| 20260507153511 | 11 | 323 | 3.2 | 6.4 | 0.00 | 0.00 | 0.00 | 44 | 1011.3 |
| 20260507153007 | 11 | 1 | 6.4 | 11.3 | 0.00 | 0.00 | 0.00 | 47 | 1011.7 |
| 20260507152503 | 12 | 318 | 6.4 | 11.3 | 0.00 | 0.00 | 0.00 | 44 | 1011.7 |
| 20260507151959 | 12 | 22 | 6.4 | 11.3 | 0.00 | 0.00 | 0.00 | 48 | 1012.1 |
| 20260507151455 | 12 | 240 | 3.2 | 6.4 | 0.00 | 0.00 | 0.00 | 42 | 1011.7 |
| 20260507150953 | 12 | 271 | 6.4 | 11.3 | 0.00 | 0.00 | 0.00 | 47 | 1012.1 |
| 20260507150449 | 12 | 249 | 0.0 | 6.4 | 0.00 | 0.00 | 0.00 | 45 | 1012.1 |
| 20260507145945 | 12 | 317 | 3.2 | 12.9 | 0.00 | 0.00 | 0.00 | 45 | 1012.5 |
| 20260507145441 | 11 | 6 | 1.6 | 9.7 | 0.00 | 0.00 | 0.00 | 44 | 1012.5 |
| 20260507144939 | 11 | 282 | 4.8 | 12.9 | 0.00 | 0.00 | 0.00 | 53 | 1012.5 |
| 20260507144435 | 11 | 290 | 3.2 | 4.8 | 0.00 | 0.00 | 0.00 | 48 | 1012.5 |
| 20260507143932 | 10 | 20 | 4.8 | 9.7 | 0.00 | 0.00 | 0.00 | 51 | 1012.5 |
| 20260507143430 | 11 | 359 | 3.2 | 9.7 | 0.00 | 0.00 | 0.00 | 47 | 1012.5 |
| 20260507142926 | 12 | 271 | 3.2 | 9.7 | 0.00 | 0.00 | 0.00 | 54 | 1012.5 |
| 20260507142422 | 11 | 285 | 4.8 | 11.3 | 0.00 | 0.00 | 0.00 | 51 | 1012.5 |
| 20260507141920 | 11 | 269 | 3.2 | 6.4 | 0.00 | 0.00 | 0.00 | 47 | 1012.8 |
| 20260507141416 | 11 | 329 | 3.2 | 6.4 | 0.00 | 0.00 | 0.00 | 47 | 1012.8 |
| 20260507140912 | 11 | 329 | 6.4 | 11.3 | 0.00 | 0.00 | 0.00 | 45 | 1012.8 |
| 20260507140409 | 11 | 325 | 6.4 | 12.9 | 0.00 | 0.00 | 0.00 | 47 | 1012.8 |
| 20260507135907 | 11 | 226 | 4.8 | 9.7 | 0.00 | 0.00 | 0.00 | 46 | 1013.1 |
| 20260507135403 | 11 | 307 | 3.2 | 6.4 | 0.00 | 0.00 | 0.00 | 50 | 1013.1 |
| 20260507134901 | 11 | 305 | 6.4 | 9.7 | 0.00 | 0.00 | 0.00 | 46 | 1013.1 |
| 20260507134357 | 11 | 279 | 3.2 | 4.8 | 0.00 | 0.00 | 0.00 | 51 | 1013.1 |
| 20260507133853 | 11 | 275 | 6.4 | 6.4 | 0.00 | 0.00 | 0.00 | 50 | 1013.1 |
| 20260507133348 | 10 | 272 | 1.6 | 9.7 | 0.00 | 0.00 | 0.00 | 48 | 1013.1 |
| 20260507132848 | 10 | 294 | 1.6 | 11.3 | 0.00 | 0.00 | 0.00 | 49 | 1013.1 |
| 20260507132343 | 10 | 22 | 6.4 | 9.7 | 0.00 | 0.00 | 0.00 | 52 | 1012.8 |
| 20260507131841 | 10 | 59 | 3.2 | 6.4 | 0.00 | 0.00 | 0.00 | 53 | 1012.8 |
| 20260507131337 | 10 | 354 | 3.2 | 6.4 | 0.00 | 0.00 | 0.00 | 54 | 1012.8 |
| 20260507130834 | 10 | 269 | 4.8 | 4.8 | 0.00 | 0.00 | 0.00 | 54 | 1013.1 |
| 20260507130331 | 10 | 208 | 3.2 | 3.2 | 0.00 | 0.00 | 0.00 | 53 | 1012.8 |
| 20260507125830 | 9 | 202 | 0.0 | 1.6 | 0.00 | 0.00 | 0.00 | 59 | 1013.1 |
| 20260507125327 | 8 | 226 | 0.0 | 1.6 | 0.00 | 0.00 | 0.00 | 60 | 1013.1 |
| 20260507124824 | 8 | 227 | 1.6 | 3.2 | 0.00 | 0.00 | 0.00 | 60 | 1013.1 |
| 20260507124320 | 8 | 230 | 1.6 | 3.2 | 0.00 | 0.00 | 0.00 | 60 | 1013.1 |
| 20260507123819 | 8 | 232 | 4.8 | 4.8 | 0.00 | 0.00 | 0.00 | 64 | 1013.1 |
| 20260507123316 | 8 | 231 | 3.2 | 3.2 | 0.00 | 0.00 | 0.00 | 61 | 1013.1 |
| 20260507122812 | 8 | 227 | 1.6 | 3.2 | 0.00 | 0.00 | 0.00 | 62 | 1013.1 |
| 20260507122308 | 7 | 227 | 3.2 | 3.2 | 0.00 | 0.00 | 0.00 | 60 | 1013.1 |
| 20260507121804 | 7 | 226 | 0.0 | 3.2 | 0.00 | 0.00 | 0.00 | 63 | 1013.1 |
| 20260507121300 | 7 | 162 | 1.6 | 3.2 | 0.00 | 0.00 | 0.00 | 63 | 1013.1 |
| 20260507120756 | 7 | 159 | 1.6 | 1.6 | 0.00 | 0.00 | 0.00 | 63 | 1013.1 |
| 20260507120253 | 7 | 157 | 1.6 | 1.6 | 0.00 | 0.00 | 0.00 | 65 | 1013.1 |
| 20260507115749 | 7 | 151 | 1.6 | 3.2 | 0.00 | 0.00 | 0.00 | 64 | 1013.1 |
| 20260507115245 | 7 | 151 | 0.0 | 0.0 | 0.00 | 0.00 | 0.00 | 72 | 1013.1 |
| 20260507114741 | 7 | 151 | 0.0 | 0.0 | 0.00 | 0.00 | 0.00 | 73 | 1013.1 |
| 20260507114238 | 6 | 151 | 0.0 | 0.0 | 0.00 | 0.00 | 0.00 | 76 | 1013.1 |
| 20260507113736 | 5 | 151 | 0.0 | 0.0 | 0.00 | 0.00 | 0.00 | 78 | 1013.1 |
| 20260507113233 | 5 | 151 | 0.0 | 1.6 | 0.00 | 0.00 | 0.00 | 79 | 1012.8 |
| 20260507112730 | 5 | 156 | 0.0 | 0.0 | 0.00 | 0.00 | 0.00 | 83 | 1012.8 |
| 20260507112227 | 3 | 157 | 0.0 | 0.0 | 0.00 | 0.00 | 0.00 | 86 | 1012.8 |
| 20260507111725 | 3 | 157 | 0.0 | 0.0 | 0.00 | 0.00 | 0.00 | 87 | 1012.5 |
| 20260507111221 | 2 | 150 | 0.0 | 0.0 | 0.00 | 0.00 | 0.00 | 91 | 1012.8 |
| 20260507110717 | 2 | 151 | 0.0 | 0.0 | 0.00 | 0.00 | 0.00 | 94 | 1012.8 |
| 20260507110214 | 1 | 145 | 0.0 | 1.6 | 0.00 | 0.00 | 0.00 | 96 | 1012.8 |
| 20260507105711 | 1 | 151 | 0.0 | 1.6 | 0.00 | 0.00 | 0.00 | 96 | 1012.8 |
| 20260507105207 | 1 | 145 | 0.0 | 1.6 | 0.00 | 0.00 | 0.00 | 96 | 1012.5 |
| 20260507104704 | 1 | 145 | 1.6 | 3.2 | 0.00 | 0.00 | 0.00 | 96 | 1012.5 |
| 20260507104201 | 0 | 150 | 0.0 | 1.6 | 0.00 | 0.00 | 0.00 | 95 | 1012.5 |
| 20260507103656 | 0 | 151 | 0.0 | 0.0 | 0.00 | 0.00 | 0.00 | 94 | 1012.5 |
| 20260507103153 | 0 | 151 | 0.0 | 0.0 | 0.00 | 0.00 | 0.00 | 94 | 1012.5 |
| 20260507102650 | 1 | 147 | 0.0 | 0.0 | 0.00 | 0.00 | 0.00 | 94 | 1012.1 |
| 20260507102146 | 1 | 143 | 0.0 | 0.0 | 0.00 | 0.00 | 0.00 | 93 | 1012.5 |
| 20260507101642 | 1 | 140 | 0.0 | 1.6 | 0.00 | 0.00 | 0.00 | 93 | 1012.5 |
| 20260507101138 | 1 | 140 | 1.6 | 3.2 | 0.00 | 0.00 | 0.00 | 93 | 1012.5 |
| 20260507100635 | 1 | 140 | 0.0 | 1.6 | 0.00 | 0.00 | 0.00 | 92 | 1012.1 |
| 20260507100134 | 1 | 125 | 1.6 | 1.6 | 0.00 | 0.00 | 0.00 | 92 | 1012.5 |
| 20260507095631 | 1 | 135 | 0.0 | 1.6 | 0.00 | 0.00 | 0.00 | 91 | 1012.1 |
| 20260507095127 | 1 | 157 | 0.0 | 1.6 | 0.00 | 0.00 | 0.00 | 91 | 1012.5 |
| 20260507094624 | 1 | 150 | 0.0 | 0.0 | 0.00 | 0.00 | 0.00 | 89 | 1012.5 |
| 20260507094121 | 2 | 163 | 0.0 | 0.0 | 0.00 | 0.00 | 0.00 | 88 | 1012.5 |
| 20260507093618 | 2 | 164 | 0.0 | 0.0 | 0.00 | 0.00 | 0.00 | 86 | 1012.5 |
| 20260507093117 | 2 | 159 | 0.0 | 0.0 | 0.00 | 0.00 | 0.00 | 83 | 1012.5 |
| 20260507092613 | 2 | 123 | 0.0 | 1.6 | 0.00 | 0.00 | 0.00 | 83 | 1012.1 |
| 20260507092109 | 2 | 136 | 1.6 | 1.6 | 0.00 | 0.00 | 0.00 | 85 | 1012.5 |
| 20260507091607 | 2 | 156 | 0.0 | 0.0 | 0.00 | 0.00 | 0.00 | 85 | 1012.5 |
| 20260507091102 | 2 | 156 | 0.0 | 0.0 | 0.00 | 0.00 | 0.00 | 83 | 1012.5 |
| 20260507090558 | 2 | 156 | 0.0 | 0.0 | 0.00 | 0.00 | 0.00 | 82 | 1012.5 |
| 20260507090055 | 3 | 159 | 0.0 | 1.6 | 0.00 | 0.00 | 0.00 | 80 | 1012.1 |
| 20260507085552 | 3 | 142 | 0.0 | 0.0 | 0.00 | 0.00 | 0.00 | 79 | 1012.5 |
| 20260507085049 | 3 | 141 | 0.0 | 1.6 | 0.00 | 0.00 | 0.00 | 78 | 1012.1 |
| 20260507084546 | 3 | 101 | 1.6 | 3.2 | 0.00 | 0.00 | 0.00 | 77 | 1012.5 |
| 20260507084043 | 3 | 141 | 0.0 | 0.0 | 0.00 | 0.00 | 0.00 | 78 | 1012.5 |
| 20260507083539 | 3 | 153 | 0.0 | 1.6 | 0.00 | 0.00 | 0.00 | 77 | 1012.5 |
| 20260507083037 | 3 | 120 | 0.0 | 0.0 | 0.00 | 0.00 | 0.00 | 76 | 1012.5 |
| 20260507082532 | 3 | 120 | 0.0 | 1.6 | 0.00 | 0.00 | 0.00 | 76 | 1012.1 |
| 20260507082029 | 3 | 146 | 0.0 | 0.0 | 0.00 | 0.00 | 0.00 | 77 | 1012.1 |
| 20260507081525 | 4 | 149 | 0.0 | 0.0 | 0.00 | 0.00 | 0.00 | 75 | 1012.1 |
| 20260507081022 | 5 | 144 | 0.0 | 0.0 | 0.00 | 0.00 | 0.00 | 73 | 1012.1 |
| 20260507080518 | 5 | 141 | 0.0 | 0.0 | 0.00 | 0.00 | 0.00 | 72 | 1012.5 |
| 20260507080015 | 5 | 33 | 3.2 | 3.2 | 0.00 | 0.00 | 0.00 | 71 | 1012.5 |
| 20260507075510 | 5 | 326 | 0.0 | 0.0 | 0.00 | 0.00 | 0.00 | 73 | 1012.5 |
| 20260507075007 | 5 | 326 | 0.0 | 0.0 | 0.00 | 0.00 | 0.00 | 70 | 1012.5 |
| 20260507074503 | 5 | 326 | 0.0 | 0.0 | 0.00 | 0.00 | 0.00 | 70 | 1012.5 |
| 20260507074002 | 5 | 326 | 0.0 | 0.0 | 0.00 | 0.00 | 0.00 | 68 | 1012.5 |
| 20260507073458 | 5 | 326 | 0.0 | 0.0 | 0.00 | 0.00 | 0.00 | 67 | 1012.5 |
| 20260507072954 | 5 | 326 | 0.0 | 1.6 | 0.00 | 0.00 | 0.00 | 67 | 1012.5 |
| 20260507072452 | 5 | 328 | 0.0 | 1.6 | 0.00 | 0.00 | 0.00 | 67 | 1012.5 |
| 20260507071949 | 5 | 330 | 0.0 | 1.6 | 0.00 | 0.00 | 0.00 | 69 | 1012.5 |
| 20260507071446 | 6 | 331 | 0.0 | 1.6 | 0.00 | 0.00 | 0.00 | 69 | 1012.5 |
| 20260507070943 | 6 | 201 | 1.6 | 1.6 | 0.00 | 0.00 | 0.00 | 70 | 1012.5 |
| 20260507070440 | 6 | 240 | 0.0 | 1.6 | 0.00 | 0.00 | 0.00 | 69 | 1012.5 |
| 20260507065936 | 6 | 196 | 0.0 | 1.6 | 0.00 | 0.00 | 0.00 | 68 | 1012.5 |
| 20260507065433 | 6 | 150 | 0.0 | 1.6 | 0.00 | 0.00 | 0.00 | 68 | 1012.5 |
| 20260507064930 | 6 | 217 | 1.6 | 3.2 | 0.00 | 0.00 | 0.00 | 69 | 1012.5 |
| 20260507064428 | 6 | 299 | 0.0 | 3.2 | 0.00 | 0.00 | 0.00 | 68 | 1012.5 |
| 20260507063926 | 6 | 151 | 1.6 | 3.2 | 0.00 | 0.00 | 0.00 | 69 | 1012.1 |
| 20260507063423 | 6 | 140 | 0.0 | 1.6 | 0.00 | 0.00 | 0.00 | 71 | 1012.5 |
| 20260507062920 | 6 | 218 | 0.0 | 0.0 | 0.00 | 0.00 | 0.00 | 71 | 1012.5 |
| 20260507062417 | 6 | 218 | 0.0 | 3.2 | 0.00 | 0.00 | 0.00 | 71 | 1012.8 |
| 20260507061914 | 6 | 215 | 0.0 | 1.6 | 0.00 | 0.00 | 0.00 | 68 | 1012.8 |
| 20260507061413 | 6 | 215 | 1.6 | 3.2 | 0.00 | 0.00 | 0.00 | 67 | 1012.8 |
| 20260507060911 | 6 | 156 | 0.0 | 1.6 | 0.00 | 0.00 | 0.00 | 66 | 1012.5 |
| 20260507060407 | 6 | 168 | 0.0 | 1.6 | 0.00 | 0.00 | 0.00 | 67 | 1012.5 |
| 20260507055904 | 6 | 351 | 0.0 | 3.2 | 0.00 | 0.00 | 0.00 | 66 | 1012.8 |
| 20260507055359 | 6 | 8 | 4.8 | 6.4 | 0.00 | 0.00 | 0.00 | 67 | 1012.8 |
| 20260507054856 | 6 | 340 | 1.6 | 3.2 | 0.00 | 0.00 | 0.00 | 66 | 1012.8 |
| 20260507054352 | 6 | 322 | 1.6 | 3.2 | 0.00 | 0.00 | 0.00 | 65 | 1012.8 |
| 20260507053849 | 6 | 13 | 0.0 | 1.6 | 0.00 | 0.00 | 0.00 | 68 | 1012.8 |
| 20260507053347 | 6 | 201 | 0.0 | 1.6 | 0.00 | 0.00 | 0.00 | 69 | 1012.8 |
| 20260507052846 | 6 | 204 | 0.0 | 0.0 | 0.00 | 0.00 | 0.00 | 71 | 1012.8 |
| 20260507052342 | 6 | 206 | 0.0 | 1.6 | 0.00 | 0.00 | 0.00 | 71 | 1012.8 |
| 20260507051839 | 6 | 6 | 1.6 | 3.2 | 0.00 | 0.00 | 0.00 | 70 | 1012.8 |
| 20260507051337 | 6 | 202 | 1.6 | 3.2 | 0.00 | 0.00 | 0.00 | 71 | 1012.8 |
| 20260507050834 | 6 | 205 | 1.6 | 1.6 | 0.00 | 0.00 | 0.00 | 72 | 1012.8 |
| 20260507050330 | 6 | 205 | 0.0 | 1.6 | 0.00 | 0.00 | 0.00 | 72 | 1012.8 |
| 20260507045827 | 6 | 158 | 0.0 | 1.6 | 0.00 | 0.00 | 0.00 | 76 | 1013.1 |
| 20260507045324 | 6 | 77 | 1.6 | 1.6 | 0.00 | 0.00 | 0.00 | 73 | 1013.1 |
| 20260507044821 | 6 | 179 | 0.0 | 1.6 | 0.00 | 0.00 | 0.00 | 78 | 1013.1 |
| 20260507044318 | 6 | 179 | 0.0 | 0.0 | 0.00 | 0.00 | 0.00 | 77 | 1013.1 |
| 20260507043813 | 7 | 179 | 0.0 | 1.6 | 0.00 | 0.00 | 0.00 | 77 | 1012.8 |
| 20260507043310 | 7 | 194 | 1.6 | 1.6 | 0.00 | 0.00 | 0.00 | 79 | 1013.1 |
| 20260507042807 | 7 | 251 | 1.6 | 1.6 | 0.00 | 0.00 | 0.00 | 78 | 1013.1 |
| 20260507042306 | 7 | 182 | 0.0 | 0.0 | 0.00 | 0.00 | 0.00 | 77 | 1012.8 |
| 20260507041759 | 7 | 131 | 1.6 | 1.6 | 0.00 | 0.00 | 0.00 | 77 | 1012.8 |
| 20260507041256 | 7 | 130 | 0.0 | 0.0 | 0.00 | 0.00 | 0.00 | 75 | 1012.8 |
| 20260507040753 | 7 | 158 | 0.0 | 1.6 | 0.00 | 0.00 | 0.00 | 75 | 1013.1 |
| 20260507040249 | 7 | 150 | 0.0 | 3.2 | 0.00 | 0.00 | 0.00 | 74 | 1013.1 |
| 20260507035745 | 7 | 150 | 0.0 | 1.6 | 0.00 | 0.53 | 0.53 | 72 | 1013.1 |
| 20260507035240 | 7 | 180 | 0.0 | 1.6 | 0.00 | 0.53 | 0.53 | 76 | 1012.8 |
| 20260507034738 | 7 | 184 | 0.0 | 0.0 | 0.00 | 0.53 | 0.53 | 75 | 1013.1 |
| 20260507034235 | 7 | 180 | 0.0 | 0.0 | 0.00 | 0.53 | 0.53 | 75 | 1013.1 |
| 20260507033734 | 7 | 180 | 0.0 | 1.6 | 0.00 | 0.53 | 0.53 | 75 | 1012.8 |
| 20260507033231 | 7 | 170 | 0.0 | 1.6 | 0.00 | 0.53 | 0.53 | 73 | 1012.5 |
| 20260507032728 | 7 | 165 | 0.0 | 0.0 | 0.00 | 0.53 | 0.53 | 74 | 1012.5 |
| 20260507032224 | 7 | 180 | 0.0 | 0.0 | 0.00 | 0.53 | 0.53 | 73 | 1012.8 |
| 20260507031721 | 7 | 186 | 1.6 | 1.6 | 0.00 | 0.53 | 0.53 | 73 | 1012.5 |
| 20260507031217 | 7 | 179 | 0.0 | 0.0 | 0.00 | 0.53 | 0.53 | 72 | 1012.5 |
| 20260507030714 | 7 | 348 | 1.6 | 3.2 | 0.00 | 0.53 | 0.53 | 71 | 1012.5 |
| 20260507030212 | 7 | 181 | 0.0 | 1.6 | 0.00 | 0.53 | 0.53 | 72 | 1012.5 |
| 20260507025709 | 7 | 132 | 0.0 | 3.2 | 0.00 | 0.53 | 0.53 | 71 | 1012.8 |
| 20260507025206 | 7 | 148 | 0.0 | 1.6 | 0.00 | 0.53 | 0.53 | 72 | 1012.8 |
| 20260507024704 | 7 | 158 | 1.6 | 3.2 | 0.00 | 0.53 | 0.53 | 70 | 1012.8 |
| 20260507024201 | 8 | 218 | 1.6 | 3.2 | 0.00 | 0.53 | 0.53 | 73 | 1012.5 |
| 20260507023656 | 8 | 198 | 3.2 | 9.7 | 0.00 | 0.53 | 0.53 | 74 | 1012.5 |
| 20260507023154 | 8 | 266 | 0.0 | 1.6 | 0.00 | 0.53 | 0.53 | 76 | 1012.5 |
| 20260507022650 | 8 | 346 | 6.4 | 9.7 | 0.00 | 0.53 | 0.53 | 74 | 1012.1 |
| 20260507022146 | 8 | 338 | 6.4 | 6.4 | 0.00 | 0.53 | 0.53 | 78 | 1012.5 |
| 20260507021643 | 8 | 104 | 1.6 | 9.7 | 0.00 | 0.53 | 0.53 | 78 | 1012.1 |
| 20260507021138 | 8 | 159 | 0.0 | 3.2 | 0.00 | 0.53 | 0.53 | 79 | 1012.1 |
| 20260507020637 | 8 | 180 | 0.0 | 1.6 | 0.00 | 0.53 | 0.53 | 79 | 1012.1 |
| 20260507020132 | 8 | 150 | 1.6 | 4.8 | 0.00 | 0.53 | 0.53 | 78 | 1011.7 |
| 20260507015631 | 8 | 331 | 1.6 | 3.2 | 0.00 | 0.53 | 0.53 | 78 | 1011.7 |
| 20260507015128 | 8 | 165 | 0.0 | 4.8 | 0.00 | 0.53 | 0.53 | 79 | 1011.7 |
| 20260507014625 | 8 | 315 | 1.6 | 4.8 | 0.00 | 0.53 | 0.53 | 78 | 1012.1 |
| 20260507014121 | 8 | 232 | 1.6 | 3.2 | 0.00 | 0.53 | 0.53 | 81 | 1011.7 |
| 20260507013618 | 8 | 138 | 1.6 | 4.8 | 0.00 | 0.53 | 0.53 | 80 | 1011.7 |
| 20260507013114 | 8 | 24 | 3.2 | 4.8 | 0.00 | 0.53 | 0.53 | 80 | 1011.7 |
| 20260507012612 | 8 | 177 | 1.6 | 3.2 | 0.00 | 0.53 | 0.53 | 81 | 1011.7 |
| 20260507012107 | 8 | 227 | 0.0 | 1.6 | 0.00 | 0.53 | 0.53 | 81 | 1011.3 |
| 20260507011606 | 8 | 358 | 1.6 | 3.2 | 0.00 | 0.53 | 0.53 | 82 | 1012.1 |
| 20260507011101 | 8 | 170 | 0.0 | 3.2 | 0.00 | 0.53 | 0.53 | 83 | 1012.5 |
| 20260507010556 | 8 | 195 | 0.0 | 3.2 | 0.00 | 0.53 | 0.53 | 84 | 1012.1 |
| 20260507010052 | 8 | 274 | 4.8 | 6.4 | 0.00 | 0.53 | 0.53 | 83 | 1012.5 |
| 20260507005550 | 8 | 268 | 3.2 | 6.4 | 0.00 | 0.53 | 0.53 | 86 | 1012.1 |
| 20260507005046 | 8 | 141 | 3.2 | 4.8 | 0.00 | 0.53 | 0.53 | 86 | 1012.1 |
| 20260507004543 | 8 | 317 | 3.2 | 3.2 | 0.00 | 0.53 | 0.53 | 87 | 1012.5 |
| 20260507004041 | 8 | 258 | 3.2 | 3.2 | 0.00 | 0.53 | 0.53 | 87 | 1012.5 |
| 20260507003537 | 8 | 150 | 1.6 | 3.2 | 0.00 | 0.53 | 0.53 | 88 | 1012.5 |
| 20260507003032 | 8 | 204 | 1.6 | 1.6 | 0.00 | 0.53 | 0.53 | 87 | 1012.5 |
| 20260507002529 | 8 | 181 | 0.0 | 3.2 | 0.00 | 0.53 | 0.53 | 87 | 1012.1 |
| 20260507002025 | 8 | 219 | 1.6 | 3.2 | 0.00 | 0.53 | 0.53 | 86 | 1011.7 |
| 20260507001521 | 8 | 0 | 3.2 | 4.8 | 0.00 | 0.53 | 0.53 | 86 | 1011.7 |
| 20260507001019 | 8 | 45 | 0.0 | 4.8 | 0.00 | 0.53 | 0.53 | 85 | 1012.1 |
| 20260507000515 | 8 | 182 | 1.6 | 3.2 | 0.00 | 0.53 | 0.53 | 86 | 1012.1 |
| 20260507000010 | 9 | 192 | 1.6 | 1.6 | 0.00 | 0.53 | 0.53 | 86 | 1012.1 |
| 20260506235508 | 9 | 318 | 3.2 | 4.8 | 0.00 | 0.53 | 0.53 | 85 | 1011.7 |
| 20260506235003 | 9 | 231 | 1.6 | 3.2 | 0.00 | 0.53 | 0.53 | 86 | 1011.7 |
| 20260506234501 | 9 | 135 | 1.6 | 3.2 | 0.00 | 0.53 | 0.53 | 85 | 1011.3 |
| 20260506233958 | 9 | 216 | 1.6 | 1.6 | 0.00 | 0.53 | 0.53 | 85 | 1011.7 |
| 20260506233455 | 9 | 232 | 1.6 | 3.2 | 0.00 | 0.53 | 0.53 | 85 | 1011.3 |
| 20260506232951 | 9 | 340 | 3.2 | 4.8 | 0.00 | 0.53 | 0.53 | 85 | 1011.3 |
| 20260506232448 | 9 | 146 | 3.2 | 4.8 | 0.00 | 0.53 | 0.53 | 84 | 1011.3 |
| 20260506231943 | 9 | 16 | 3.2 | 4.8 | 0.00 | 0.53 | 0.53 | 85 | 1011.0 |
| 20260506231441 | 9 | 330 | 4.8 | 6.4 | 0.00 | 0.53 | 0.53 | 85 | 1011.0 |
| 20260506230938 | 9 | 46 | 1.6 | 9.7 | 0.00 | 0.53 | 0.53 | 84 | 1011.0 |
| 20260506230434 | 9 | 273 | 3.2 | 3.2 | 0.00 | 0.53 | 0.53 | 85 | 1011.0 |
| 20260506225931 | 9 | 327 | 1.6 | 4.8 | 0.00 | 0.53 | 0.53 | 85 | 1011.0 |
| 20260506225429 | 9 | 337 | 1.6 | 3.2 | 0.00 | 0.53 | 0.53 | 85 | 1011.0 |
| 20260506224925 | 9 | 234 | 3.2 | 3.2 | 0.00 | 0.53 | 0.53 | 85 | 1011.3 |
| 20260506224423 | 9 | 21 | 1.6 | 4.8 | 0.00 | 0.53 | 0.53 | 86 | 1011.0 |
| 20260506223919 | 9 | 322 | 4.8 | 6.4 | 0.00 | 0.53 | 0.53 | 85 | 1011.0 |
| 20260506223414 | 9 | 256 | 1.6 | 4.8 | 0.00 | 0.53 | 0.53 | 86 | 1011.0 |
| 20260506222912 | 9 | 96 | 1.6 | 3.2 | 0.00 | 0.53 | 0.53 | 86 | 1011.0 |
| 20260506222409 | 9 | 135 | 3.2 | 6.4 | 0.00 | 0.53 | 0.53 | 86 | 1011.0 |
| 20260506221906 | 9 | 242 | 3.2 | 4.8 | 0.00 | 0.53 | 0.53 | 87 | 1011.0 |
| 20260506221403 | 10 | 349 | 4.8 | 6.4 | 0.00 | 0.53 | 0.53 | 87 | 1011.3 |
| 20260506220900 | 10 | 319 | 1.6 | 6.4 | 0.00 | 0.53 | 0.53 | 88 | 1011.0 |
| 20260506220355 | 10 | 355 | 3.2 | 4.8 | 0.00 | 0.53 | 0.53 | 87 | 1011.0 |
| 20260506215852 | 10 | 336 | 4.8 | 9.7 | 0.00 | 0.53 | 0.53 | 87 | 1011.0 |
| 20260506215348 | 10 | 181 | 1.6 | 4.8 | 0.00 | 0.53 | 0.53 | 87 | 1010.7 |
| 20260506214844 | 10 | 2 | 6.4 | 9.7 | 0.00 | 0.53 | 0.53 | 88 | 1010.7 |
| 20260506214341 | 10 | 15 | 4.8 | 6.4 | 0.00 | 0.53 | 0.53 | 89 | 1010.7 |
| 20260506213839 | 10 | 358 | 4.8 | 12.9 | 0.00 | 0.53 | 0.53 | 88 | 1010.7 |
| 20260506213336 | 10 | 215 | 1.6 | 1.6 | 0.00 | 0.53 | 0.53 | 90 | 1010.3 |
| 20260506212833 | 10 | 27 | 1.6 | 11.3 | 0.00 | 0.53 | 0.53 | 90 | 1010.3 |
| 20260506212329 | 10 | 279 | 6.4 | 12.9 | 0.00 | 0.53 | 0.53 | 90 | 1010.3 |
| 20260506211825 | 10 | 88 | 1.6 | 4.8 | 0.00 | 0.53 | 0.53 | 90 | 1009.9 |
| 20260506211321 | 10 | 219 | 3.2 | 4.8 | 0.00 | 0.53 | 0.53 | 90 | 1009.9 |
| 20260506210818 | 10 | 23 | 3.2 | 3.2 | 0.00 | 0.53 | 0.53 | 90 | 1009.9 |
| 20260506210315 | 10 | 266 | 1.6 | 9.7 | 0.00 | 0.53 | 0.53 | 90 | 1009.9 |
| 20260506205812 | 10 | 321 | 3.2 | 4.8 | 0.00 | 0.53 | 0.53 | 91 | 1009.9 |
| 20260506205308 | 10 | 5 | 9.7 | 11.3 | 0.00 | 0.53 | 0.53 | 90 | 1009.9 |
| 20260506204804 | 10 | 263 | 1.6 | 4.8 | 0.00 | 0.53 | 0.53 | 91 | 1009.9 |
| 20260506204303 | 10 | 348 | 4.8 | 4.8 | 0.00 | 0.53 | 0.53 | 90 | 1009.6 |
| 20260506203800 | 10 | 314 | 1.6 | 4.8 | 0.00 | 0.53 | 0.53 | 91 | 1009.9 |
| 20260506203257 | 10 | 341 | 6.4 | 12.9 | 0.00 | 0.53 | 0.53 | 91 | 1009.6 |
| 20260506202754 | 10 | 354 | 4.8 | 6.4 | 0.00 | 0.53 | 0.53 | 92 | 1009.6 |
| 20260506202251 | 10 | 306 | 3.2 | 9.7 | 0.00 | 0.53 | 0.53 | 93 | 1009.6 |
| 20260506201747 | 10 | 298 | 3.2 | 4.8 | 0.00 | 0.53 | 0.53 | 94 | 1009.6 |
| 20260506201244 | 10 | 206 | 1.6 | 4.8 | 0.00 | 0.53 | 0.53 | 94 | 1009.6 |
| 20260506200741 | 10 | 10 | 4.8 | 9.7 | 0.00 | 0.53 | 0.53 | 94 | 1009.6 |
| 20260506200238 | 10 | 355 | 6.4 | 14.5 | 0.00 | 0.53 | 0.53 | 94 | 1009.9 |
| 20260506195734 | 10 | 7 | 4.8 | 6.4 | 0.00 | 0.53 | 0.53 | 95 | 1009.9 |
| 20260506195230 | 10 | 329 | 3.2 | 6.4 | 0.00 | 0.53 | 0.53 | 95 | 1009.9 |
| 20260506194728 | 10 | 339 | 3.2 | 4.8 | 0.00 | 0.53 | 0.53 | 95 | 1009.6 |
| 20260506194224 | 10 | 196 | 3.2 | 6.4 | 0.00 | 0.53 | 0.53 | 95 | 1009.6 |
| 20260506193722 | 10 | 320 | 4.8 | 6.4 | 0.00 | 0.53 | 0.53 | 95 | 1009.6 |
| 20260506193219 | 10 | 255 | 1.6 | 4.8 | 0.00 | 0.53 | 0.53 | 95 | 1009.6 |
| 20260506192715 | 10 | 311 | 4.8 | 6.4 | 0.00 | 0.53 | 0.53 | 95 | 1009.9 |
| 20260506192212 | 10 | 321 | 3.2 | 4.8 | 0.00 | 0.53 | 0.53 | 95 | 1009.6 |
| 20260506191709 | 10 | 219 | 3.2 | 4.8 | 0.00 | 0.53 | 0.53 | 95 | 1009.6 |
| 20260506191205 | 10 | 221 | 3.2 | 4.8 | 0.00 | 0.53 | 0.53 | 96 | 1009.6 |
| 20260506190702 | 10 | 319 | 4.8 | 6.4 | 0.00 | 0.53 | 0.53 | 96 | 1009.6 |
| 20260506190153 | 10 | 305 | 4.8 | 6.4 | 0.00 | 0.53 | 0.53 | 97 | 1009.6 |
| 20260506185650 | 10 | 352 | 9.7 | 14.5 | 0.00 | 0.53 | 0.53 | 96 | 1009.2 |
| 20260506185146 | 10 | 328 | 4.8 | 9.7 | 0.00 | 0.53 | 0.53 | 96 | 1009.6 |
| 20260506184644 | 10 | 341 | 6.4 | 6.4 | 0.00 | 0.53 | 0.53 | 96 | 1009.6 |
| 20260506184141 | 10 | 263 | 3.2 | 4.8 | 0.00 | 0.53 | 0.53 | 96 | 1009.6 |
| 20260506183638 | 10 | 319 | 4.8 | 20.9 | 0.00 | 0.53 | 0.53 | 95 | 1009.2 |
| 20260506183134 | 10 | 343 | 6.4 | 9.7 | 0.00 | 0.53 | 0.53 | 96 | 1009.2 |
| 20260506182631 | 10 | 343 | 6.4 | 9.7 | 0.00 | 0.53 | 0.53 | 95 | 1009.2 |
| 20260506182128 | 10 | 351 | 8.0 | 9.7 | 0.00 | 0.53 | 0.53 | 93 | 1008.9 |
| 20260506181626 | 11 | 13 | 6.4 | 11.3 | 0.00 | 0.53 | 0.53 | 93 | 1008.9 |
| 20260506181123 | 11 | 359 | 4.8 | 6.4 | 0.00 | 0.53 | 0.53 | 93 | 1009.2 |
| 20260506180620 | 11 | 353 | 8.0 | 11.3 | 0.00 | 0.53 | 0.53 | 92 | 1008.9 |
| 20260506180116 | 11 | 331 | 4.8 | 12.9 | 0.00 | 0.53 | 0.53 | 93 | 1008.9 |
| 20260506175613 | 11 | 296 | 4.8 | 6.4 | 0.00 | 0.53 | 0.53 | 93 | 1008.9 |
| 20260506175108 | 11 | 347 | 3.2 | 9.7 | 0.18 | 0.53 | 0.53 | 94 | 1008.9 |
| 20260506174608 | 11 | 304 | 6.4 | 11.3 | 0.18 | 0.53 | 0.53 | 94 | 1008.5 |
| 20260506174103 | 11 | 324 | 6.4 | 12.9 | 0.00 | 0.51 | 0.51 | 95 | 1008.9 |
| 20260506173602 | 12 | 352 | 6.4 | 9.7 | 0.00 | 0.51 | 0.51 | 94 | 1008.9 |
| 20260506173058 | 12 | 355 | 6.4 | 12.9 | 0.00 | 0.51 | 0.51 | 94 | 1008.5 |
| 20260506172555 | 12 | 288 | 3.2 | 6.4 | 0.00 | 0.51 | 0.51 | 93 | 1008.5 |
| 20260506172051 | 12 | 319 | 6.4 | 9.7 | 0.00 | 0.51 | 0.51 | 92 | 1008.5 |
| 20260506171549 | 12 | 210 | 4.8 | 12.9 | 0.00 | 0.51 | 0.51 | 91 | 1008.5 |
| 20260506171047 | 12 | 311 | 12.9 | 14.5 | 0.00 | 0.51 | 0.51 | 89 | 1008.5 |
| 20260506170544 | 13 | 315 | 3.2 | 11.3 | 0.00 | 0.51 | 0.51 | 90 | 1008.5 |
| 20260506170041 | 13 | 330 | 8.0 | 16.1 | 0.00 | 0.51 | 0.51 | 88 | 1008.1 |
| 20260506165539 | 14 | 328 | 8.0 | 14.5 | 0.00 | 0.51 | 0.51 | 87 | 1008.1 |
| 20260506165030 | 14 | 291 | 3.2 | 14.5 | 0.00 | 0.51 | 0.51 | 89 | 1007.8 |